World > North America > United States > New York

Hourly South Edmeston, NY Regional Weather

Feedback E-mail the Weather

Quick WX

South Edmeston, NY Weather Maps

°F °C°F °C
South Edmeston Weather Map
UTC Time: 7/1/2022, 23:17
Your Time:

South Edmeston, NY Regional Weather

Expires:202207020000;;519254
ASUS41 KBGM 012310
RWRBGM

REGIONAL WEATHER ROUNDUP
NATIONAL WEATHER SERVICE BINGHAMTON NY
700 PM EDT FRI JUL 01 2022

Note: "fair" indicates few or no clouds below 12,000 feet with no
significant weather and/or obstructions to visibility.

* = Station(s) that does not report precipitation, such as rain, 
snow, etc, also no thunder or fog.


NYZ009-015>018-022>025-036-037-044>046-055>057-062-020000
...Central New York...
  
CITY           SKY/WX    TMP DP  RH WIND       PRES   REMARKS
Binghamton     MOSUNNY   82  62  50 SW10      29.93S                  
Cortland       PTSUNNY   79  59  50 SW5       29.92R                  
Dansville      LGT RAIN  73  67  81 E6        29.89S                  
Elmira         PTSUNNY   86  59  39 W5        29.88S HX  85           
Endicott       PTCLDY    84  66  54 SW6       29.89S HX  86           
Ithaca         PTSUNNY   80  58  46 N6        29.91S                  
Hamilton       MOSUNNY   81  63  54 CALM      29.90S                  
Monticello     PTSUNNY   82  66  58 S9        29.97F                  
Norwich        MOSUNNY   82  64  54 S5        29.92S                  
Oneonta        SUNNY     81  63  54 SW6       29.94F                  
Penn Yan       CLOUDY    79  60  52 S5        29.90S                  
Rome           PTSUNNY   85  63  47 SW3       29.85F HX  86           
Seneca Falls   DRIZZLE   75  64  69 S6        29.87F                  
Sidney         SUNNY     82  66  57 CALM      29.90F HX  85           
Skaneateles    MOCLDY    81  61  50 SW8       29.90R                  
Syracuse       PTSUNNY   83  62  49 SW8       29.85S                  
$$
 

SKY/WX - Weather  TMP - Temperature  DP - Dew Point  RH - Humidity
WIND - Wind Direction/Speed PRES - Barometric Pressure VSB - Visibility
WCI - Wind Chill Index E13G22 Wind - East Wind 13 mph/Gusts of 22 mph

Trending Headlines

South Edmeston Radar Loop



South Edmeston Quick Facts


National Two Day Weather Forecast


E-mail the South Edmeston Weather Forecast

Voice your opinion or tell us about page issues...